When you browse on this site, cookies collect data to enhance your experience and personalize the content and advertising you see.
Visit our Privacy Policy to learn more. By continuing to use the site, you agree to this use of cookies and data.

Stündliche Wetter Cavaillon

Heute, 5 Juli, Sonntag

Zeit Temperatur Niederschläge Wind Luftdruck Luftfeuchtigkeit
00:00 +21°C° 0 mm 4 m/S 751 mmHg 58%
01:00 +21°C° 0 mm 5 m/S 751 mmHg 58%
02:00 +20°C° 0 mm 5 m/S 751 mmHg 58%
03:00 +20°C° 0 mm 5 m/S 751 mmHg 59%
04:00 +21°C° 0 mm 5 m/S 751 mmHg 57%
05:00 +21°C° 0 mm 5 m/S 750 mmHg 56%
06:00 +22°C° 0 mm 5 m/S 750 mmHg 55%
07:00 +25°C° 0 mm 5 m/S 751 mmHg 51%
08:00 +27°C° 0 mm 5 m/S 751 mmHg 46%
09:00 +29°C° 0 mm 5 m/S 751 mmHg 41%
10:00 +32°C° 0 mm 5 m/S 751 mmHg 38%
11:00 +33°C° 0 mm 5 m/S 751 mmHg 36%
12:00 +34°C° 0 mm 4 m/S 751 mmHg 33%
13:00 +35°C° 0 mm 5 m/S 750 mmHg 33%
14:00 +35°C° 0 mm 5 m/S 750 mmHg 33%
15:00 +36°C° 0 mm 5 m/S 749 mmHg 32%
16:00 +35°C° 0 mm 5 m/S 749 mmHg 34%
17:00 +34°C° 0 mm 5 m/S 749 mmHg 36%
18:00 +33°C° 0 mm 5 m/S 749 mmHg 38%
19:00 +30°C° 0 mm 5 m/S 749 mmHg 42%
20:00 +28°C° 0 mm 4 m/S 749 mmHg 46%
21:00 +26°C° 0 mm 4 m/S 750 mmHg 49%
22:00 +25°C° 0 mm 4 m/S 749 mmHg 53%
23:00 +25°C° 0 mm 5 m/S 749 mmHg 58%

Morgen, 6 Juli, Montag

Zeit Temperatur Niederschläge Wind Luftdruck Luftfeuchtigkeit
00:00 +23°C° 0 mm 5 m/S 749 mmHg 62%
01:00 +22°C° 0 mm 5 m/S 749 mmHg 64%
02:00 +22°C° 0 mm 5 m/S 749 mmHg 66%
03:00 +21°C° 0 mm 5 m/S 748 mmHg 67%
04:00 +21°C° 0 mm 6 m/S 748 mmHg 66%
05:00 +22°C° 0 mm 6 m/S 748 mmHg 65%
06:00 +23°C° 0 mm 6 m/S 748 mmHg 64%
07:00 +24°C° 0 mm 7 m/S 748 mmHg 57%
08:00 +27°C° 0 mm 8 m/S 748 mmHg 50%
09:00 +29°C° 0 mm 8 m/S 748 mmHg 44%
10:00 +31°C° 0 mm 9 m/S 748 mmHg 41%
11:00 +32°C° 0 mm 9 m/S 748 mmHg 38%
12:00 +33°C° 0 mm 10 m/S 747 mmHg 35%
13:00 +33°C° 0 mm 10 m/S 747 mmHg 35%
14:00 +32°C° 0 mm 11 m/S 747 mmHg 35%
15:00 +32°C° 0 mm 11 m/S 747 mmHg 35%
16:00 +31°C° 0 mm 12 m/S 747 mmHg 34%
17:00 +28°C° 0 mm 12 m/S 747 mmHg 34%
18:00 +27°C° 0 mm 12 m/S 747 mmHg 33%
19:00 +24°C° 0 mm 12 m/S 747 mmHg 37%
20:00 +22°C° 0 mm 11 m/S 747 mmHg 41%
21:00 +21°C° 0 mm 11 m/S 748 mmHg 44%
22:00 +19°C° 0 mm 11 m/S 747 mmHg 47%
23:00 +18°C° 0 mm 10 m/S 747 mmHg 50%

übermorgen, 7 Juli, Dienstag

Zeit Temperatur Niederschläge Wind Luftdruck Luftfeuchtigkeit
00:00 +16°C° 0 mm 10 m/S 747 mmHg 52%
01:00 +16°C° 0 mm 10 m/S 747 mmHg 56%
02:00 +15°C° 0 mm 9 m/S 747 mmHg 59%
03:00 +15°C° 0 mm 9 m/S 747 mmHg 62%
04:00 +15°C° 0 mm 9 m/S 747 mmHg 60%
05:00 +16°C° 0 mm 9 m/S 747 mmHg 57%
06:00 +16°C° 0 mm 9 m/S 747 mmHg 55%
07:00 +20°C° 0 mm 8 m/S 747 mmHg 49%
08:00 +22°C° 0 mm 7 m/S 747 mmHg 42%
09:00 +24°C° 0 mm 7 m/S 748 mmHg 36%
10:00 +27°C° 0 mm 6 m/S 748 mmHg 34%
11:00 +28°C° 0 mm 6 m/S 748 mmHg 33%
12:00 +30°C° 0 mm 5 m/S 748 mmHg 31%
13:00 +30°C° 0 mm 5 m/S 748 mmHg 32%
14:00 +30°C° 0 mm 5 m/S 748 mmHg 32%
15:00 +32°C° 0 mm 5 m/S 748 mmHg 33%
16:00 +30°C° 0 mm 5 m/S 748 mmHg 36%
17:00 +29°C° 0 mm 5 m/S 749 mmHg 38%
18:00 +28°C° 0 mm 4 m/S 749 mmHg 41%
19:00 +26°C° 0 mm 4 m/S 749 mmHg 46%
20:00 +23°C° 0 mm 4 m/S 749 mmHg 50%
21:00 +21°C° 0 mm 4 m/S 750 mmHg 55%
22:00 +21°C° 0 mm 3 m/S 750 mmHg 58%
23:00 +20°C° 0 mm 3 m/S 750 mmHg 61%

8 Juli, Mittwoch

Zeit Temperatur Niederschläge Wind Luftdruck Luftfeuchtigkeit
00:00 +19°C° 0 mm 3 m/S 750 mmHg 63%
01:00 +19°C° 0 mm 3 m/S 750 mmHg 66%
02:00 +18°C° 0 mm 2 m/S 750 mmHg 69%
03:00 +18°C° 0 mm 2 m/S 750 mmHg 72%
04:00 +19°C° 0 mm 2 m/S 750 mmHg 68%
05:00 +20°C° 0 mm 2 m/S 750 mmHg 65%
06:00 +20°C° 0 mm 2 m/S 750 mmHg 61%
07:00 +23°C° 0 mm 2 m/S 750 mmHg 55%
08:00 +25°C° 0 mm 2 m/S 751 mmHg 50%
09:00 +27°C° 0 mm 2 m/S 751 mmHg 44%
10:00 +29°C° 0 mm 2 m/S 751 mmHg 41%
11:00 +30°C° 0 mm 3 m/S 750 mmHg 38%
12:00 +31°C° 0 mm 3 m/S 750 mmHg 34%
13:00 +31°C° 0 mm 3 m/S 750 mmHg 33%
14:00 +33°C° 0 mm 4 m/S 750 mmHg 31%
15:00 +33°C° 0 mm 4 m/S 750 mmHg 29%
16:00 +32°C° 0 mm 4 m/S 749 mmHg 32%
17:00 +29°C° 0 mm 4 m/S 749 mmHg 36%
18:00 +28°C° 0 mm 4 m/S 749 mmHg 39%
19:00 +26°C° 0 mm 3 m/S 749 mmHg 45%
20:00 +24°C° 0 mm 3 m/S 750 mmHg 51%
21:00 +21°C° 0 mm 2 m/S 750 mmHg 58%
22:00 +20°C° 0 mm 2 m/S 750 mmHg 59%
23:00 +20°C° 0 mm 2 m/S 750 mmHg 60%

9 Juli, Donnerstag

Zeit Temperatur Niederschläge Wind Luftdruck Luftfeuchtigkeit
00:00 +20°C° 0 mm 2 m/S 750 mmHg 61%
01:00 +19°C° 0 mm 2 m/S 750 mmHg 64%
02:00 +19°C° 0 mm 2 m/S 750 mmHg 66%
03:00 +18°C° 0 mm 2 m/S 749 mmHg 69%
04:00 +19°C° 0 mm 2 m/S 750 mmHg 66%
05:00 +20°C° 0 mm 2 m/S 750 mmHg 64%
06:00 +21°C° 0 mm 2 m/S 750 mmHg 61%
07:00 +25°C° 0 mm 2 m/S 750 mmHg 54%
08:00 +27°C° 0 mm 2 m/S 750 mmHg 48%
09:00 +29°C° 0 mm 2 m/S 750 mmHg 41%
10:00 +30°C° 0 mm 2 m/S 750 mmHg 37%
11:00 +33°C° 0 mm 3 m/S 750 mmHg 33%
12:00 +34°C° 0 mm 3 m/S 750 mmHg 29%
13:00 +34°C° 0 mm 3 m/S 750 mmHg 29%
14:00 +34°C° 0 mm 4 m/S 749 mmHg 28%
15:00 +35°C° 0 mm 4 m/S 749 mmHg 28%
16:00 +33°C° 0 mm 4 m/S 749 mmHg 31%
17:00 +31°C° 0 mm 3 m/S 749 mmHg 34%
18:00 +30°C° 0 mm 3 m/S 749 mmHg 37%
19:00 +28°C° 0 mm 2 m/S 749 mmHg 43%
20:00 +25°C° 0 mm 2 m/S 749 mmHg 50%
21:00 +23°C° 0 mm 1 m/S 749 mmHg 56%
22:00 +23°C° 0 mm 1 m/S 749 mmHg 57%
23:00 +22°C° 0 mm 1 m/S 749 mmHg 58%

10 Juli, Freitag

Zeit Temperatur Niederschläge Wind Luftdruck Luftfeuchtigkeit
00:00 +22°C° 0 mm 1 m/S 749 mmHg 59%
01:00 +22°C° 0 mm 1 m/S 749 mmHg 60%
02:00 +21°C° 0 mm 1 m/S 748 mmHg 61%
03:00 +21°C° 0 mm 1 m/S 748 mmHg 63%
04:00 +22°C° 0 mm 1 m/S 748 mmHg 60%
05:00 +23°C° 0 mm 1 m/S 748 mmHg 57%
06:00 +24°C° 0 mm 1 m/S 748 mmHg 54%
07:00 +26°C° 0 mm 1 m/S 748 mmHg 49%
08:00 +28°C° 0 mm 1 m/S 748 mmHg 43%
09:00 +30°C° 0 mm 2 m/S 748 mmHg 38%
10:00 +32°C° 0 mm 2 m/S 748 mmHg 34%
11:00 +34°C° 0 mm 3 m/S 748 mmHg 30%
12:00 +36°C° 0 mm 3 m/S 748 mmHg 26%
13:00 +36°C° 0 mm 4 m/S 748 mmHg 26%
14:00 +36°C° 0 mm 4 m/S 748 mmHg 27%
15:00 +36°C° 0 mm 5 m/S 747 mmHg 27%
16:00 +35°C° 0 mm 5 m/S 747 mmHg 30%
17:00 +34°C° 0 mm 4 m/S 747 mmHg 34%
18:00 +32°C° 0 mm 4 m/S 747 mmHg 37%
19:00 +29°C° 0 mm 3 m/S 747 mmHg 46%
20:00 +27°C° 0 mm 3 m/S 748 mmHg 55%
21:00 +24°C° 0 mm 2 m/S 748 mmHg 64%
22:00 +24°C° 0 mm 1 m/S 748 mmHg 66%
23:00 +24°C° 0 mm 1 m/S 748 mmHg 68%
Mehr zeigen